SCP
0 0 0 0 0 0 0 0 0 0 0 0 0 0 0 0 0 0 0 1 1 1 1 1 1 1 1 1 1 1 1 1 1 1 1 1 2 2 2 2 2 1 1
0 0 0 0 0 0 0 0 0 0 0 0 0 0 0 0 0 0 0 0 1 1 1 1 1 1 1 1 1 1 1 1 1 1 1 1 1 1 2 2 2 2 2
0 0 0 0 0 0 0 0 0 0 0 0 0 0 0 0 0 0 0 0 0 1 1 1 1 1 1 1 1 1 1 1 1 1 1 1 1 1 1 1 2 2 2
0 0 0 0 0 0 0 0 0 0 0 0 0 0 0 0 0 0 0 0 0 0 1 1 1 1 1 1 1 0 0 0 0 0 0 1 1 1 1 1 1 1 1
0 0 0 0 0 0 0 0 0 0 0 0 0 0 0 0 0 0 0 0 0 0 0 0 1 1 1 0 0 0 0 0 0 0 0 0 0 1 1 1 1 1 1
0 0 0 0 0 0 0 0 0 0 0 0 0 0 0 0 0 0 0 0 0 0 0 0 0 0 0 0 0 0 0 0 0 0 0 0 0 0 0 0 0 0 0
0 0 0 0 0 0 0 0 0 0 0 0 0 0 0 0 0 0 0 0 0 0 0 0 0 0 0 0 0 0 0 0 0 0 0 0 0 0 0 0 0 0 0
0 0 0 0 0 0 0 0 0 0 0 0 0 0 0 0 0 0 0 0 0 0 0 0 0 0 0 0 0 0 0 0 0 0 0 0 0 0 0 0 0 0 0
0 0 0 0 0 0 0 0 0 0 0 0 0 0 0 0 0 0 0 0 0 0 0 0 0 0 0 0 0 0 0 0 0 0 0 0 0 0 0 0 0 0 0
0 0 0 0 0 0 0 0 0 0 0 0 0 0 0 0 0 0 0 0 0 0 0 0 0 0 0 0 0 0 0 0 0 0 0 0 0 0 0 0 0 0 0
0 0 0 0 0 0 0 0 0 0 0 0 0 0 0 0 0 0 0 0 0 0 0 0 0 0 0 0 0 0 0 0 0 0 0 0 0 0 0 0 0 0 0
0 0 0 0 0 0 0 0 0 0 0 0 0 0 0 0 0 0 0 0 0 0 0 0 0 0 0 0 0 0 0 0 0 0 0 0 0 0 0 0 0 0 0
0 0 0 0 0 0 0 0 0 0 0 0 0 0 0 0 0 0 0 0 0 0 0 0 0 0 0 0 0 0 0 0 0 0 0 0 0 0 0 0 0 0 0
0 0 0 0 0 0 0 0 0 0 0 0 0 0 0 0 0 0 0 0 0 0 0 0 0 0 0 0 0 0 0 0 0 0 0 0 0 0 0 0 0 0 0
0 0 0 0 0 0 0 0 0 0 0 0 0 0 0 0 0 0 0 0 0 0 0 0 0 0 0 0 0 0 0 0 0 0 0 0 0 0 0 0 0 0 0
0 0 0 0 0 0 0 0 0 0 0 0 0 0 0 0 0 0 0 0 0 0 0 0 0 0 0 0 0 0 0 0 0 0 0 0 0 0 0 0 0 0 0
0 0 0 0 0 0 0 0 0 0 0 0 0 0 0 0 0 0 0 0 0 0 0 0 0 0 0 0 0 0 0 0 0 0 0 0 0 0 0 0 0 0 0
0 0 0 0 0 0 0 0 0 0 0 0 0 0 0 0 0 0 0 0 0 0 0 0 0 0 0 0 0 0 0 0 0 0 0 0 0 0 0 0 0 0 0
0 0 0 0 0 0 0 0 0 0 0 0 0 0 0 0 0 0 0 0 0 0 0 0 0 0 0 0 0 0 0 0 0 0 0 0 0 0 0 0 0 0 0
0 0 0 0 0 0 0 0 0 0 0 0 0 0 0 0 0 0 0 0 0 0 0 0 0 0 0 0 0 0 0 0 0 0 0 0 0 0 0 0 0 0 0
0 0 0 0 0 0 0 0 0 0 0 0 0 0 0 0 0 0 0 0 0 0 0 0 0 0 0 0 0 0 0 0 0 0 0 0 0 0 0 0 0 0 0
0 0 0 0 0 0 0 0 0 0 0 0 0 0 0 0 0 0 0 0 0 0 0 0 0 0 0 0 0 0 0 0 0 0 0 0 0 0 0 0 0 0 0
0 0 0 0 0 0 0 0 0 0 0 0 0 0 0 0 0 0 0 0 0 0 0 0 0 0 0 0 0 0 0 0 0 0 0 -0 -0 -0 0 0 0 0 0
0 0 0 0 0 0 0 0 0 0 0 0 0 0 0 0 0 0 0 0 0 0 0 0 0 0 0 0 0 0 0 0 0 0 0 0 0 0 0 0 0 0 0
0 0 0 0 0 0 0 0 0 0 0 0 0 0 0 0 0 0 0 0 0 0 0 0 0 0 0 0 0 0 0 0 0 0 0 0 0 0 0 0 0 0 0
0 0 0 0 0 0 0 0 0 0 0 0 0 0 0 0 0 -0 -0 -0 -0 -0 -0 0 0 0 0 0 0 0 0 0 0 0 0 0 0 0 0 0 0 0 0
Wind_Speed
5 5 4 3 3 3 3 3 2 2 1 1 0 1 2 2 2 2 2 8 9 9 10 11 11 10 9 8 7 6 5 5 5 5 5 6 6 8 9 10 11 11 12
5 5 4 3 3 3 3 3 2 2 2 2 3 4 3 3 1 2 2 4 7 8 9 10 10 9 9 8 6 5 4 4 4 4 5 6 6 7 8 9 11 11 12
5 5 4 3 2 2 3 3 3 3 3 4 4 4 4 4 3 1 1 2 3 7 9 9 9 8 8 7 6 6 5 5 5 6 6 7 7 8 8 8 9 10 11
6 5 4 3 2 3 3 4 3 3 3 3 3 3 3 3 4 3 2 2 2 3 5 8 8 7 7 7 7 7 7 7 7 8 8 9 9 9 9 10 10 10 10
6 5 4 3 4 4 3 3 4 3 3 3 3 2 3 3 4 5 5 4 2 2 2 4 5 5 6 7 7 9 10 10 11 11 11 12 12 11 11 11 11 11 11
7 6 5 5 5 4 4 4 4 4 3 2 3 4 3 3 3 3 4 4 4 4 4 3 2 3 5 6 8 9 11 12 13 13 13 13 13 12 12 11 11 12 13
8 7 5 5 5 4 3 3 3 4 3 3 3 4 4 4 3 3 3 4 6 6 5 4 2 2 3 7 9 11 13 15 15 16 16 15 13 12 11 12 12 13 14
7 7 7 5 4 4 5 5 3 2 3 3 2 2 4 5 4 3 3 4 5 5 6 6 4 4 3 3 6 12 14 15 17 17 17 17 15 14 13 13 14 14 15
8 8 7 6 5 4 4 4 4 3 2 3 3 2 1 2 4 4 3 4 5 4 4 4 6 6 6 4 5 9 15 15 17 18 19 19 17 16 15 15 15 15 16
7 8 7 6 5 4 4 4 4 3 3 2 2 2 2 2 1 4 5 4 5 4 4 5 5 4 4 3 6 13 16 16 17 18 19 20 20 19 18 17 16 16 16
6 7 6 6 5 4 4 4 3 3 2 1 1 0 1 1 1 2 4 5 5 4 3 3 3 4 4 3 4 10 18 18 17 18 18 19 20 21 21 19 18 17 17
4 5 6 5 5 4 3 2 2 2 1 1 1 1 1 1 2 2 3 4 5 5 4 4 4 4 4 4 7 16 18 18 18 18 19 19 19 20 19 19 19 18 18
3 4 5 4 3 3 3 2 1 0 1 1 2 2 2 3 3 3 3 4 4 4 4 4 4 4 5 3 5 17 16 18 18 18 18 19 19 19 19 19 19 19 18
4 5 5 4 4 3 3 2 1 1 1 2 4 4 3 4 3 3 4 4 6 5 4 6 4 4 4 4 8 15 9 17 19 19 20 20 20 20 20 20 20 19 19
5 5 5 4 3 2 2 2 2 3 3 3 4 4 4 4 4 4 4 4 4 8 7 5 4 4 4 5 10 7 6 15 21 22 22 21 22 22 21 21 20 20 19
4 4 3 2 1 1 1 1 2 2 2 3 2 3 3 3 3 3 3 4 4 6 9 4 4 5 6 9 14 9 7 21 22 22 22 22 21 22 22 23 23 22 21
4 3 2 2 2 3 4 4 4 4 4 4 4 4 4 4 3 4 4 4 4 4 9 7 4 5 6 8 9 8 8 8 10 20 21 21 20 20 21 21 21 21 21
4 4 4 5 6 7 7 6 5 5 4 4 5 5 6 5 5 5 4 5 5 5 7 11 6 5 7 8 8 9 10 10 7 17 21 21 21 19 18 18 18 17 17
6 6 6 7 7 6 5 4 4 3 4 4 5 6 6 6 6 6 6 6 6 7 6 8 9 6 6 7 8 10 11 9 10 13 17 18 18 17 16 14 14 15 15
6 6 6 6 5 4 4 3 3 3 4 5 6 6 7 7 7 7 7 7 7 7 7 8 9 8 7 7 7 8 9 7 8 10 13 14 16 18 17 15 14 15 15
6 5 5 4 3 2 1 2 3 5 5 7 7 7 8 12 14 10 8 7 7 7 7 8 9 8 8 7 7 7 9 8 9 8 8 8 8 7 8 12 15 16 14
5 5 4 3 1 1 2 4 5 5 6 7 8 9 9 10 13 17 19 18 16 11 9 9 9 9 10 9 8 7 8 9 7 5 6 8 6 7 7 6 12 14 13
4 4 3 2 1 2 3 6 9 6 6 7 8 8 9 10 13 9 13 18 17 19 18 12 11 10 10 8 8 9 9 9 9 6 5 7 6 7 7 8 14 14 14
3 2 2 2 2 3 5 6 10 7 7 8 8 9 9 10 10 10 10 11 11 11 12 9 8 9 9 8 8 9 9 8 8 7 6 5 4 5 6 5 10 13 12
3 2 2 3 3 4 6 8 9 6 6 9 9 9 9 9 12 14 11 10 11 9 11 12 12 11 12 12 9 6 5 6 6 4 2 3 2 2 3 4 6 10 11
3 3 4 4 4 3 6 9 10 5 6 8 8 9 11 11 13 14 9 9 9 9 9 9 8 8 7 6 7 5 5 5 4 3 2 2 2 2 3 2 2 2 4
Wind_Direction
191 189 193 192 203 198 186 194 215 222 217 238 250 83 75 98 143 164 208 206 208 212 212 211 212 213 215 215 215 217 224 240 253 264 271 270 266 258 248 242 238 233 229
179 176 174 173 189 185 173 168 161 132 99 78 49 43 51 59 98 188 221 226 227 228 227 224 223 223 225 223 221 223 232 250 268 286 294 293 289 285 275 263 253 245 238
157 149 144 147 157 145 132 113 96 79 69 54 38 27 30 23 24 357 278 274 271 256 246 238 231 227 228 232 235 237 244 259 271 283 289 294 295 293 289 284 276 266 255
127 123 121 114 106 99 101 98 81 71 53 40 18 3 9 6 1 349 339 302 281 275 269 256 245 240 242 247 252 255 260 266 270 276 280 285 289 290 290 287 285 282 274
110 105 98 85 79 72 65 76 62 69 51 22 355 358 358 344 336 340 341 336 325 304 291 280 269 260 262 267 272 276 278 278 275 273 275 278 281 284 288 289 289 288 285
97 95 86 74 72 72 57 57 63 52 53 19 359 352 330 325 341 3 6 12 14 8 2 358 348 336 329 311 304 299 293 289 287 284 277 276 278 279 282 285 288 288 286
92 87 83 69 66 73 70 67 64 51 32 20 28 351 334 343 15 43 34 37 25 13 9 12 9 9 344 336 326 312 302 295 290 287 284 281 278 277 277 280 284 286 286
95 93 87 79 67 73 62 51 55 60 26 32 65 35 349 341 347 12 19 33 16 7 6 2 358 353 336 331 319 320 312 304 294 288 284 281 276 269 269 272 278 281 283
94 96 93 88 75 77 77 68 65 78 51 21 51 104 92 295 315 324 354 20 11 10 0 354 8 2 356 346 326 325 324 316 305 295 288 281 276 269 266 267 271 276 278
99 101 100 97 90 88 88 79 76 81 87 40 22 50 134 177 231 313 326 342 356 359 350 352 351 347 350 342 337 340 338 331 320 309 296 287 277 268 263 261 263 268 274
102 108 107 102 98 98 99 91 88 81 101 128 117 30 35 45 143 186 286 311 320 310 305 304 310 314 319 322 322 325 332 330 326 321 310 297 285 274 264 258 256 260 267
103 110 108 102 108 112 112 108 100 93 121 159 182 185 182 223 249 221 247 270 283 288 294 290 291 290 293 300 311 321 321 321 322 321 318 309 297 287 276 266 260 261 265
119 121 114 115 120 126 118 110 94 45 246 233 226 227 221 223 220 222 246 268 268 273 279 278 271 279 292 295 300 311 312 313 314 313 311 309 302 292 283 276 269 265 265
128 130 128 130 133 132 130 138 164 247 247 245 246 241 240 245 233 228 234 263 285 278 258 261 271 265 278 284 287 303 301 304 304 302 300 296 293 289 284 278 272 266 262
124 126 131 137 149 164 186 193 226 257 264 262 263 263 257 261 257 250 240 230 259 288 284 256 260 260 268 272 284 287 278 294 297 295 291 287 283 279 276 272 268 264 259
113 126 130 140 170 244 279 291 296 303 315 312 303 306 296 286 283 276 265 255 242 266 285 260 251 258 275 288 293 290 281 293 294 291 287 283 279 274 270 266 261 258 255
106 106 106 87 52 38 36 39 27 18 14 358 351 338 316 303 293 289 280 268 260 257 280 285 256 263 267 273 284 281 278 274 276 284 286 285 281 275 270 264 257 254 253
73 69 64 66 69 66 59 54 39 28 14 354 337 328 315 313 301 287 276 267 263 255 265 284 284 271 266 268 271 274 284 283 276 284 285 284 284 278 272 264 256 251 248
64 61 68 75 80 77 67 55 41 19 350 327 316 308 301 300 294 287 277 270 266 269 259 273 282 272 269 272 276 278 277 275 279 281 281 282 284 284 279 270 259 250 244
66 69 78 91 93 88 75 46 22 357 333 318 308 300 294 288 281 280 279 272 272 273 270 270 277 278 275 271 267 274 280 271 272 276 278 278 277 279 277 273 264 254 244
73 79 90 101 115 107 67 38 358 343 326 315 310 302 296 303 306 306 304 293 284 278 276 275 278 279 277 275 270 267 276 278 270 262 265 266 266 264 267 268 266 259 249
61 70 79 89 61 22 343 357 352 327 313 308 306 305 303 304 309 313 310 307 302 294 288 281 281 279 279 275 275 273 275 278 278 248 246 261 251 255 255 247 252 253 248
61 65 59 48 7 314 319 335 340 333 313 304 300 302 308 308 311 300 303 306 302 298 293 287 283 282 282 280 279 278 274 274 274 268 262 267 253 253 251 252 251 247 242
58 50 32 21 1 336 336 335 337 334 311 303 300 298 297 299 303 307 307 303 298 296 294 292 283 283 283 282 278 279 283 281 272 267 256 263 251 247 252 244 246 244 240
41 31 23 24 18 347 351 347 347 323 310 307 304 303 304 302 304 313 313 307 305 304 306 300 293 289 289 290 294 294 291 293 293 280 255 258 264 264 260 250 243 238 234
44 32 29 20 15 353 347 346 346 322 314 313 310 308 309 307 311 316 313 308 308 312 313 314 311 309 305 304 311 307 310 308 305 294 325 309 281 283 284 274 252 233 229